HS5FXK-3 Weather Reports


time (UTC)temp
C
wind
direction
speed
KPH
gust
KPH
rain 1hr
cm
rain 24hr
cm
rain mn
cm
humidity
%
barometer
mb
20260508024718 33 0 0.0 0.0 0.00 0.00 0.00 62 981.0
20260508023206 31 0 0.0 0.0 0.00 0.00 0.00 69 981.0
20260508021654 31 0 0.0 0.0 0.00 0.00 0.00 71 981.0
20260508020142 32 0 0.0 0.0 0.00 0.00 0.00 68 981.0
20260508014629 31 0 0.0 0.0 0.00 0.00 0.00 71 981.0
20260508013117 30 0 0.0 0.0 0.00 0.00 0.00 82 981.0
20260508012442 29 0 0.0 0.0 0.00 0.00 0.00 86 981.0
20260508010701 28 0 0.0 0.0 0.00 0.00 0.00 89 981.0
20260508005212 28 0 0.0 0.0 0.00 0.00 0.00 94 981.0
20260508003523 27 0 0.0 0.0 0.00 0.00 0.00 99 981.0
20260508001135 27 0 0.0 0.0 0.00 0.00 0.00 99 980.0
20260507235623 27 0 0.0 0.0 0.00 0.00 0.00 99 980.0
20260507234111 26 0 0.0 0.0 0.00 0.00 0.00 99 980.0
20260507232600 27 0 0.0 0.0 0.00 0.00 0.00 99 980.0
20260507231047 27 0 0.0 0.0 0.00 0.00 0.00 99 980.0
20260507225534 27 0 0.0 0.0 0.00 0.00 0.00 99 979.0
20260507224330 27 0 0.0 0.0 0.00 0.00 0.00 99 979.0
20260507222817 26 0 0.0 0.0 0.00 0.00 0.00 99 979.0
20260507221305 27 0 0.0 0.0 0.00 0.00 0.00 99 979.0
20260507215753 27 0 0.0 0.0 0.00 0.00 0.00 99 979.0
20260507214241 27 0 0.0 0.0 0.00 0.00 0.00 99 979.0
20260507212729 27 0 0.0 0.0 0.00 0.00 0.00 99 979.0
20260507211217 27 0 0.0 0.0 0.00 0.00 0.00 99 978.0
20260507205704 27 0 0.0 0.0 0.00 0.00 0.00 99 978.0
20260507204152 26 0 0.0 0.0 0.00 0.00 0.00 99 978.0
20260507202640 27 0 0.0 0.0 0.00 0.00 0.00 99 978.0
20260507201128 27 0 0.0 0.0 0.00 0.00 0.00 99 978.0
20260507195615 27 0 0.0 0.0 0.00 0.00 0.00 99 978.0
20260507194931 27 0 0.0 0.0 0.00 0.00 0.00 99 978.0
20260507193418 27 0 0.0 0.0 0.00 0.00 0.00 99 978.0
20260507191906 27 0 0.0 0.0 0.00 0.00 0.00 99 978.0
20260507190354 27 0 0.0 0.0 0.00 0.00 0.00 99 978.0
20260507184842 27 0 0.0 0.0 0.00 0.00 0.00 98 978.0
20260507183329 27 0 0.0 0.0 0.00 0.00 0.00 94 978.0
20260507181817 27 0 0.0 0.0 0.00 0.00 0.00 94 979.0
20260507180304 27 0 0.0 0.0 0.00 0.00 0.00 91 979.0
20260507174752 27 0 0.0 0.0 0.00 0.00 0.00 88 979.0
20260507173240 27 0 0.0 0.0 0.00 0.00 0.00 89 979.0
20260507171728 27 0 0.0 0.0 0.00 0.00 0.00 88 980.0
20260507170216 27 0 0.0 0.0 0.00 0.00 0.00 87 980.0
20260507164703 28 0 0.0 0.0 0.00 0.00 0.00 85 980.0
20260507163435 28 0 0.0 0.0 0.00 0.00 0.00 82 980.0
20260507163236 28 0 0.0 0.0 0.00 0.00 0.00 82 980.0
20260507161724 28 0 0.0 0.0 0.00 0.00 0.00 75 980.0
20260507160257 28 0 0.0 0.0 0.00 0.00 0.00 73 980.0
20260507155542 29 0 0.0 0.0 0.00 0.00 0.00 73 980.0
20260507154029 29 0 0.0 0.0 0.00 0.00 0.00 73 979.0
20260507152517 30 0 0.0 0.0 0.00 0.00 0.00 71 979.0
20260507151005 29 0 0.0 0.0 0.00 0.00 0.00 69 979.0
20260507145453 29 0 0.0 0.0 0.00 0.00 0.00 72 978.0
20260507143941 29 0 0.0 0.0 0.00 0.00 0.00 72 979.0
20260507142428 29 0 0.0 0.0 0.00 0.00 0.00 72 979.0
20260507140916 29 0 0.0 0.0 0.00 0.00 0.00 75 978.0
20260507135404 29 0 0.0 0.0 0.00 0.00 0.00 74 978.0
20260507133935 30 0 0.0 0.0 0.00 0.00 0.00 73 978.0
20260507132423 30 0 0.0 0.0 0.00 0.00 0.00 65 977.0
20260507130911 30 0 0.0 0.0 0.00 0.00 0.00 57 977.0
20260507125359 30 0 0.0 0.0 0.00 0.00 0.00 55 976.0
20260507123846 30 0 0.0 0.0 0.00 0.00 0.00 56 976.0
20260507122412 30 0 0.0 0.0 0.00 0.00 0.00 56 976.0
20260507120900 30 0 0.0 0.0 0.00 0.00 0.00 55 975.0
20260507115347 30 0 0.0 0.0 0.00 0.00 0.00 55 975.0
20260507113835 30 0 0.0 0.0 0.00 0.00 0.00 58 975.0
20260507112323 30 0 0.0 0.0 0.00 0.00 0.00 57 975.0
20260507110810 32 0 0.0 0.0 0.00 0.00 0.00 50 975.0
20260507105258 35 0 0.0 0.0 0.00 0.00 0.00 45 974.0
20260507103746 36 0 0.0 0.0 0.00 0.00 0.00 43 973.0
20260507102233 36 0 0.0 0.0 0.00 0.00 0.00 43 973.0
20260507101851 36 0 0.0 0.0 0.00 0.00 0.00 44 973.0
20260507100337 37 0 0.0 0.0 0.00 0.00 0.00 41 973.0
20260507095228 38 0 0.0 0.0 0.00 0.00 0.00 41 973.0
20260507094055 38 0 0.0 0.0 0.00 0.00 0.00 39 973.0
20260507092542 39 0 0.0 0.0 0.00 0.00 0.00 38 973.0
20260507090947 40 0 0.0 0.0 0.00 0.00 0.00 35 973.0
20260507090757 40 0 0.0 0.0 0.00 0.00 0.00 36 973.0
20260507085244 40 0 0.0 0.0 0.00 0.00 0.00 35 973.0
20260507083732 41 0 0.0 0.0 0.00 0.00 0.00 35 973.0
20260507082220 41 0 0.0 0.0 0.00 0.00 0.00 36 973.0
20260507081605 40 0 0.0 0.0 0.00 0.00 0.00 36 973.0
20260507080053 41 0 0.0 0.0 0.00 0.00 0.00 33 973.0
20260507074541 41 0 0.0 0.0 0.00 0.00 0.00 35 974.0
20260507074438 42 0 0.0 0.0 0.00 0.00 0.00 34 974.0
20260507072926 41 0 0.0 0.0 0.00 0.00 0.00 35 974.0
20260507071413 40 0 0.0 0.0 0.00 0.00 0.00 37 974.0
20260507065903 41 0 0.0 0.0 0.00 0.00 0.00 35 975.0
20260507064349 41 0 0.0 0.0 0.00 0.00 0.00 35 975.0
20260507062837 41 0 0.0 0.0 0.00 0.00 0.00 36 976.0
20260507061325 41 0 0.0 0.0 0.00 0.00 0.00 36 976.0
20260507055824 41 0 0.0 0.0 0.00 0.00 0.00 38 976.0
20260507054319 41 0 0.0 0.0 0.00 0.00 0.00 41 977.0
20260507052748 41 0 0.0 0.0 0.00 0.00 0.00 40 977.0
20260507051811 41 0 0.0 0.0 0.00 0.00 0.00 41 977.0
20260507045725 40 0 0.0 0.0 0.00 0.00 0.00 43 978.0
20260507044623 40 0 0.0 0.0 0.00 0.00 0.00 43 978.0
20260507043430 38 0 0.0 0.0 0.00 0.00 0.00 45 978.0
20260507041838 37 0 0.0 0.0 0.00 0.00 0.00 49 978.0
20260507040326 37 0 0.0 0.0 0.00 0.00 0.00 49 978.0
20260507035023 37 0 0.0 0.0 0.00 0.00 0.00 51 978.0
20260507033301 36 0 0.0 0.0 0.00 0.00 0.00 53 979.0
20260507032903 36 0 0.0 0.0 0.00 0.00 0.00 53 979.0
20260507031351 35 0 0.0 0.0 0.00 0.00 0.00 58 979.0